User: anonymous   Login
Location: Helsinki
(60.1699°N, 24.9384°E)
Time: 10:53:05
(UTC+02:00)
Language:

AO-85 - Orbit

View from above orbital plane
View from above orbital plane
View from above satellite
View from above satellite

Ground track
Ground track

The orbit data is extracted from the following two-line orbital elements,

1 40967U 15058D   22328.43588320  .00000969  00000-0  12205-3 0  5426
2 40967  64.7752 304.9187 0173487 146.9043 214.3042 14.78172167 84303
Epoch (UTC): 24 November 2022 10:27:40
Eccentricity: 0.0173487
inclination: 64.7752°
perigee height: 513 km
apogee height: 757 km
right ascension of ascending node: 304.9187°
argument of perigee: 146.9043°
revolutions per day: 14.78172167
mean anomaly at epoch: 214.3042°
orbit number at epoch: 8430

The dashed part of the orbit path shows where the satellite is in the earth's shadow,  

DLR